| time (UTC) | temp C | wind direction | speed KPH | gust KPH | rain 1hr cm | rain 24hr cm | rain mn cm | humidity % | barometer mb |
| 20260510025044 | 41 | 137 | 0.0 | 0.0 | 0.00 | 0.00 | 0.00 | 100 | 1009.6 |
| 20260510024542 | 41 | 137 | 0.0 | 6.4 | 0.00 | 0.00 | 0.00 | 100 | 1009.6 |
| 20260510024031 | 41 | 137 | 3.2 | 6.4 | 0.00 | 0.00 | 0.00 | 100 | 1009.5 |
| 20260510023512 | 41 | 142 | 0.0 | 4.8 | 0.00 | 0.00 | 0.00 | 100 | 1009.4 |
| 20260510023002 | 41 | 142 | 0.0 | 6.4 | 0.00 | 0.00 | 0.00 | 100 | 1009.3 |
| 20260510022502 | 41 | 144 | 0.0 | 6.4 | 0.00 | 0.00 | 0.00 | 100 | 1009.2 |
| 20260510022002 | 41 | 127 | 0.0 | 0.0 | 0.00 | 0.00 | 0.00 | 100 | 1009.2 |
| 20260510021501 | 41 | 127 | 0.0 | 0.0 | 0.00 | 0.00 | 0.00 | 100 | 1009.1 |
| 20260510020956 | 41 | 127 | 0.0 | 0.0 | 0.00 | 0.00 | 0.00 | 100 | 1009.0 |
| 20260510020455 | 41 | 127 | 0.0 | 0.0 | 0.00 | 0.00 | 0.00 | 100 | 1008.9 |
| 20260510020219 | 41 | 127 | 0.0 | 0.0 | 0.00 | 0.00 | 0.00 | 100 | 1008.8 |
| 20260510015443 | 41 | 127 | 0.0 | 0.0 | 0.00 | 0.00 | 0.00 | 100 | 1008.7 |
| 20260510014939 | 41 | 127 | 0.0 | 0.0 | 0.00 | 0.00 | 0.00 | 100 | 1008.7 |
| 20260510014710 | 41 | 127 | 0.0 | 0.0 | 0.00 | 0.00 | 0.00 | 100 | 1008.8 |
| 20260510014544 | 41 | 127 | 0.0 | 0.0 | 0.00 | 0.00 | 0.00 | 100 | 1008.7 |
| 20260510013429 | 41 | 127 | 0.0 | 0.0 | 0.00 | 0.00 | 0.00 | 100 | 1008.6 |
| 20260510013149 | 41 | 127 | 0.0 | 0.0 | 0.00 | 0.00 | 0.00 | 100 | 1008.6 |
| 20260510012403 | 42 | 127 | 0.0 | 0.0 | 0.00 | 0.00 | 0.00 | 100 | 1008.5 |
| 20260510011857 | 42 | 127 | 0.0 | 4.8 | 0.00 | 0.00 | 0.00 | 100 | 1008.4 |
| 20260510011340 | 42 | 127 | 0.0 | 9.7 | 0.00 | 0.00 | 0.00 | 100 | 1008.4 |
| 20260510010835 | 42 | 112 | 0.0 | 11.3 | 0.00 | 0.00 | 0.00 | 100 | 1008.4 |
| 20260510010603 | 42 | 112 | 4.8 | 11.3 | 0.00 | 0.00 | 0.00 | 100 | 1008.4 |
| 20260510005829 | 42 | 130 | 0.0 | 4.8 | 0.00 | 0.00 | 0.00 | 100 | 1008.4 |
| 20260510005306 | 42 | 130 | 0.0 | 3.2 | 0.00 | 0.00 | 0.00 | 100 | 1008.3 |
| 20260510004745 | 42 | 130 | 0.0 | 14.5 | 0.00 | 0.00 | 0.00 | 100 | 1008.3 |
| 20260510004231 | 42 | 130 | 3.2 | 14.5 | 0.00 | 0.00 | 0.00 | 100 | 1008.2 |
| 20260510003727 | 42 | 149 | 0.0 | 9.7 | 0.00 | 0.00 | 0.00 | 100 | 1008.2 |
| 20260510003218 | 42 | 139 | 3.2 | 9.7 | 0.00 | 0.00 | 0.00 | 100 | 1008.1 |
| 20260510002704 | 42 | 116 | 0.0 | 6.4 | 0.00 | 0.00 | 0.00 | 100 | 1008.1 |
| 20260510002158 | 42 | 125 | 0.0 | 6.4 | 0.00 | 0.00 | 0.00 | 100 | 1008.0 |
| 20260510001655 | 43 | 127 | 1.6 | 9.7 | 0.00 | 0.00 | 0.00 | 100 | 1008.0 |
| 20260510001151 | 43 | 171 | 3.2 | 9.7 | 0.00 | 0.00 | 0.00 | 100 | 1008.0 |
| 20260510000917 | 43 | 120 | 0.0 | 9.7 | 0.00 | 0.00 | 0.00 | 100 | 1007.9 |
| 20260510000146 | 43 | 122 | 0.0 | 11.3 | 0.00 | 0.00 | 0.00 | 100 | 1007.9 |
| 20260509235643 | 43 | 115 | 1.6 | 11.3 | 0.00 | 0.00 | 0.00 | 100 | 1007.8 |
| 20260509235141 | 43 | 116 | 0.0 | 0.0 | 0.00 | 0.00 | 0.00 | 100 | 1007.7 |
| 20260509234622 | 43 | 116 | 0.0 | 4.8 | 0.00 | 0.00 | 0.00 | 100 | 1007.7 |
| 20260509234101 | 43 | 116 | 0.0 | 4.8 | 0.00 | 0.00 | 0.00 | 100 | 1007.7 |
| 20260509234051 | 43 | 120 | 0.0 | 8.0 | 0.00 | 0.00 | 0.00 | 100 | 1007.6 |
| 20260509233048 | 43 | 139 | 3.2 | 9.7 | 0.00 | 0.00 | 0.00 | 100 | 1007.6 |
| 20260509232543 | 43 | 136 | 4.8 | 9.7 | 0.00 | 0.00 | 0.00 | 100 | 1007.7 |
| 20260509232044 | 43 | 144 | 6.4 | 9.7 | 0.00 | 0.00 | 0.00 | 100 | 1007.6 |
| 20260509231545 | 43 | 137 | 0.0 | 8.0 | 0.00 | 0.00 | 0.00 | 100 | 1007.5 |
| 20260509231044 | 43 | 132 | 4.8 | 8.0 | 0.00 | 0.00 | 0.00 | 100 | 1007.5 |
| 20260509230815 | 43 | 125 | 0.0 | 8.0 | 0.00 | 0.00 | 0.00 | 100 | 1007.6 |
| 20260509230043 | 43 | 53 | 0.0 | 8.0 | 0.00 | 0.00 | 0.00 | 100 | 1007.6 |
| 20260509225543 | 43 | 161 | 0.0 | 4.8 | 0.00 | 0.00 | 0.00 | 100 | 1007.5 |
| 20260509225039 | 43 | 22 | 0.0 | 4.8 | 0.00 | 0.00 | 0.00 | 100 | 1007.6 |
| 20260509224542 | 43 | 125 | 1.6 | 9.7 | 0.00 | 0.00 | 0.00 | 100 | 1007.5 |
| 20260509224537 | 43 | 37 | 0.0 | 6.4 | 0.00 | 0.00 | 0.00 | 100 | 1007.6 |
| 20260509223537 | 43 | 113 | 4.8 | 9.7 | 0.00 | 0.00 | 0.00 | 100 | 1007.5 |
| 20260509223307 | 43 | 78 | 0.0 | 8.0 | 0.00 | 0.00 | 0.00 | 100 | 1007.6 |
| 20260509222533 | 43 | 78 | 1.6 | 11.3 | 0.00 | 0.00 | 0.00 | 100 | 1007.6 |
| 20260509222035 | 43 | 139 | 4.8 | 11.3 | 0.00 | 0.00 | 0.00 | 100 | 1007.6 |
| 20260509221532 | 43 | 132 | 8.0 | 14.5 | 0.00 | 0.00 | 0.00 | 100 | 1007.6 |
| 20260509221033 | 43 | 102 | 6.4 | 16.1 | 0.00 | 0.00 | 0.00 | 100 | 1007.5 |
| 20260509220531 | 43 | 147 | 4.8 | 16.1 | 0.00 | 0.00 | 0.00 | 100 | 1007.6 |
| 20260509220031 | 43 | 153 | 1.6 | 11.3 | 0.00 | 0.00 | 0.00 | 100 | 1007.6 |
| 20260509215531 | 43 | 132 | 8.0 | 14.5 | 0.00 | 0.00 | 0.00 | 100 | 1007.6 |
| 20260509215258 | 43 | 163 | 6.4 | 14.5 | 0.00 | 0.00 | 0.00 | 100 | 1007.6 |
| 20260509214757 | 43 | 139 | 6.4 | 14.5 | 0.00 | 0.00 | 0.00 | 100 | 1007.6 |
| 20260509214027 | 43 | 108 | 0.0 | 11.3 | 0.00 | 0.00 | 0.00 | 100 | 1007.7 |
| 20260509213525 | 43 | 142 | 0.0 | 6.4 | 0.00 | 0.00 | 0.00 | 100 | 1007.8 |
| 20260509213256 | 44 | 130 | 1.6 | 12.9 | 0.00 | 0.00 | 0.00 | 100 | 1007.8 |
| 20260509212522 | 44 | 36 | 4.8 | 12.9 | 0.00 | 0.00 | 0.00 | 100 | 1007.8 |
| 20260509212019 | 43 | 23 | 3.2 | 9.7 | 0.00 | 0.00 | 0.00 | 100 | 1007.9 |
| 20260509211510 | 43 | 102 | 3.2 | 9.7 | 0.00 | 0.00 | 0.00 | 100 | 1007.9 |
| 20260509211003 | 43 | 135 | 3.2 | 8.0 | 0.00 | 0.00 | 0.00 | 100 | 1008.1 |
| 20260509210459 | 43 | 132 | 1.6 | 8.0 | 0.00 | 0.00 | 0.00 | 100 | 1008.2 |
| 20260509205949 | 43 | 161 | 3.2 | 8.0 | 0.00 | 0.00 | 0.00 | 100 | 1008.2 |
| 20260509205445 | 44 | 358 | 0.0 | 9.7 | 0.00 | 0.00 | 0.00 | 100 | 1008.2 |
| 20260509204944 | 44 | 330 | 3.2 | 9.7 | 0.00 | 0.00 | 0.00 | 100 | 1008.2 |
| 20260509204443 | 43 | 57 | 3.2 | 11.3 | 0.00 | 0.00 | 0.00 | 100 | 1008.3 |
| 20260509204214 | 43 | 149 | 8.0 | 12.9 | 0.00 | 0.00 | 0.00 | 100 | 1008.4 |
| 20260509203443 | 43 | 126 | 3.2 | 12.9 | 0.00 | 0.00 | 0.00 | 100 | 1008.5 |
| 20260509203214 | 43 | 168 | 6.4 | 16.1 | 0.00 | 0.00 | 0.00 | 100 | 1008.5 |
| 20260509202443 | 43 | 87 | 8.0 | 16.1 | 0.00 | 0.00 | 0.00 | 100 | 1008.5 |
| 20260509201943 | 43 | 99 | 6.4 | 14.5 | 0.00 | 0.00 | 0.00 | 100 | 1008.5 |
| 20260509201441 | 43 | 97 | 4.8 | 16.1 | 0.00 | 0.00 | 0.00 | 100 | 1008.8 |
| 20260509200936 | 43 | 140 | 8.0 | 16.1 | 0.00 | 0.00 | 0.00 | 100 | 1009.0 |
| 20260509200437 | 42 | 167 | 6.4 | 22.5 | 0.00 | 0.00 | 0.00 | 100 | 1009.2 |
| 20260509195936 | 42 | 143 | 8.0 | 22.5 | 0.00 | 0.00 | 0.00 | 100 | 1009.2 |
| 20260509195436 | 43 | 101 | 9.7 | 20.9 | 0.00 | 0.00 | 0.00 | 100 | 1009.1 |
| 20260509194936 | 43 | 122 | 0.0 | 14.5 | 0.00 | 0.00 | 0.00 | 100 | 1009.2 |
| 20260509194436 | 44 | 22 | 0.0 | 9.7 | 0.00 | 0.00 | 0.00 | 100 | 1009.0 |
| 20260509193930 | 44 | 22 | 0.0 | 20.9 | 0.00 | 0.00 | 0.00 | 100 | 1009.0 |
| 20260509193422 | 45 | 30 | 3.2 | 20.9 | 0.00 | 0.00 | 0.00 | 100 | 1008.9 |
| 20260509192920 | 45 | 264 | 1.6 | 8.0 | 0.00 | 0.00 | 0.00 | 100 | 1008.9 |
| 20260509192416 | 45 | 4 | 6.4 | 9.7 | 0.00 | 0.00 | 0.00 | 100 | 1009.0 |
| 20260509191916 | 45 | 202 | 6.4 | 9.7 | 0.00 | 0.00 | 0.00 | 100 | 1009.1 |
| 20260509191415 | 44 | 225 | 0.0 | 11.3 | 0.00 | 0.00 | 0.00 | 100 | 1009.0 |
| 20260509191404 | 44 | 307 | 1.6 | 11.3 | 0.00 | 0.00 | 0.00 | 100 | 1009.1 |
| 20260509190621 | 44 | 219 | 1.6 | 9.7 | 0.00 | 0.00 | 0.00 | 100 | 1009.1 |
| 20260509185849 | 44 | 36 | 3.2 | 12.9 | 0.00 | 0.00 | 0.00 | 100 | 1009.2 |
| 20260509185615 | 44 | 223 | 4.8 | 12.9 | 0.00 | 0.00 | 0.00 | 100 | 1009.3 |
| 20260509184845 | 44 | 209 | 1.6 | 11.3 | 0.00 | 0.00 | 0.00 | 100 | 1009.4 |
| 20260509184615 | 43 | 32 | 4.8 | 9.7 | 0.00 | 0.00 | 0.00 | 100 | 1009.5 |
| 20260509183342 | 43 | 216 | 1.6 | 14.5 | 0.00 | 0.00 | 0.00 | 100 | 1009.7 |
| 20260509183109 | 43 | 198 | 6.4 | 14.5 | 0.00 | 0.00 | 0.00 | 100 | 1009.7 |
| 20260509182333 | 43 | 18 | 1.6 | 12.9 | 0.00 | 0.00 | 0.00 | 100 | 1009.7 |
| 20260509181829 | 43 | 22 | 9.7 | 14.5 | 0.00 | 0.00 | 0.00 | 100 | 1009.9 |
| 20260509181823 | 43 | 288 | 1.6 | 14.5 | 0.00 | 0.00 | 0.00 | 100 | 1010.2 |
| 20260509181051 | 43 | 168 | 0.0 | 12.9 | 0.00 | 0.00 | 0.00 | 100 | 1010.2 |
| 20260509180320 | 43 | 203 | 6.4 | 9.7 | 0.00 | 0.00 | 0.00 | 100 | 1010.2 |
| 20260509175817 | 42 | 330 | 0.0 | 9.7 | 0.00 | 0.00 | 0.00 | 100 | 1010.2 |
| 20260509175308 | 42 | 243 | 1.6 | 9.7 | 0.00 | 0.00 | 0.00 | 100 | 1010.3 |
| 20260509174807 | 42 | 181 | 3.2 | 11.3 | 0.00 | 0.00 | 0.00 | 100 | 1010.3 |
| 20260509174307 | 42 | 177 | 0.0 | 14.5 | 0.00 | 0.00 | 0.00 | 100 | 1010.3 |
| 20260509173756 | 42 | 230 | 0.0 | 14.5 | 0.00 | 0.00 | 0.00 | 100 | 1010.4 |
| 20260509173256 | 42 | 180 | 6.4 | 11.3 | 0.00 | 0.00 | 0.00 | 100 | 1010.7 |
| 20260509173028 | 42 | 343 | 0.0 | 9.7 | 0.00 | 0.00 | 0.00 | 100 | 1010.9 |
| 20260509172253 | 42 | 1 | 1.6 | 9.7 | 0.00 | 0.00 | 0.00 | 100 | 1010.9 |
| 20260509171752 | 42 | 322 | 1.6 | 9.7 | 0.00 | 0.00 | 0.00 | 100 | 1010.9 |
| 20260509171248 | 42 | 355 | 0.0 | 9.7 | 0.00 | 0.00 | 0.00 | 100 | 1011.0 |
| 20260509170747 | 42 | 358 | 0.0 | 9.7 | 0.00 | 0.00 | 0.00 | 100 | 1010.9 |
| 20260509170244 | 41 | 358 | 4.8 | 11.3 | 0.00 | 0.00 | 0.00 | 100 | 1010.8 |
| 20260509165745 | 41 | 194 | 1.6 | 14.5 | 0.00 | 0.00 | 0.00 | 100 | 1010.7 |
| 20260509165244 | 41 | 215 | 6.4 | 14.5 | 0.00 | 0.00 | 0.00 | 100 | 1010.8 |
| 20260509165017 | 41 | 175 | 4.8 | 12.9 | 0.00 | 0.00 | 0.00 | 100 | 1010.8 |
| 20260509164346 | 41 | 164 | 3.2 | 9.7 | 0.00 | 0.00 | 0.00 | 100 | 1010.8 |
| 20260509163237 | 41 | 192 | 4.8 | 12.9 | 0.00 | 0.00 | 0.00 | 100 | 1010.8 |
| 20260509162723 | 41 | 32 | 0.0 | 11.3 | 0.00 | 0.00 | 0.00 | 100 | 1010.8 |
| 20260509162219 | 41 | 240 | 4.8 | 11.3 | 0.00 | 0.00 | 0.00 | 100 | 1010.8 |
| 20260509161708 | 41 | 9 | 6.4 | 11.3 | 0.00 | 0.00 | 0.00 | 100 | 1010.9 |
| 20260509161209 | 40 | 220 | 0.0 | 8.0 | 0.00 | 0.00 | 0.00 | 100 | 1010.9 |
| 20260509160709 | 40 | 191 | 0.0 | 8.0 | 0.00 | 0.00 | 0.00 | 100 | 1010.8 |
| 20260509160202 | 40 | 108 | 0.0 | 9.7 | 0.00 | 0.00 | 0.00 | 100 | 1010.8 |
| 20260509155935 | 39 | 143 | 0.0 | 11.3 | 0.00 | 0.00 | 0.00 | 100 | 1010.9 |
| 20260509155201 | 39 | 144 | 6.4 | 14.5 | 0.00 | 0.00 | 0.00 | 100 | 1011.0 |
| 20260509154702 | 40 | 168 | 8.0 | 16.1 | 0.00 | 0.00 | 0.00 | 100 | 1011.0 |
| 20260509154202 | 39 | 158 | 0.0 | 20.9 | 0.00 | 0.00 | 0.00 | 100 | 1011.0 |
| 20260509153702 | 39 | 191 | 6.4 | 20.9 | 0.00 | 0.00 | 0.00 | 100 | 1011.0 |
| 20260509153202 | 39 | 170 | 4.8 | 16.1 | 0.00 | 0.00 | 0.00 | 100 | 1010.8 |
| 20260509152932 | 38 | 144 | 6.4 | 12.9 | 0.00 | 0.00 | 0.00 | 100 | 1010.7 |
| 20260509152201 | 39 | 146 | 3.2 | 17.7 | 0.00 | 0.00 | 0.00 | 100 | 1010.6 |
| 20260509151659 | 38 | 178 | 8.0 | 17.7 | 0.00 | 0.00 | 0.00 | 100 | 1010.5 |
| 20260509151429 | 38 | 232 | 9.7 | 16.1 | 0.00 | 0.00 | 0.00 | 100 | 1010.5 |
| 20260509150658 | 38 | 142 | 8.0 | 12.9 | 0.00 | 0.00 | 0.00 | 100 | 1010.5 |
| 20260509150153 | 38 | 135 | 4.8 | 12.9 | 0.00 | 0.00 | 0.00 | 100 | 1010.4 |
| 20260509145653 | 38 | 112 | 4.8 | 12.9 | 0.00 | 0.00 | 0.00 | 100 | 1010.5 |
| 20260509145424 | 38 | 180 | 6.4 | 16.1 | 0.00 | 0.00 | 0.00 | 100 | 1010.4 |
| 20260509144652 | 38 | 147 | 9.7 | 16.1 | 0.00 | 0.00 | 0.00 | 100 | 1010.4 |
| 20260509144425 | 38 | 140 | 6.4 | 12.9 | 0.00 | 0.00 | 0.00 | 1 | 1010.4 |
| 20260509143651 | 38 | 217 | 6.4 | 11.3 | 0.00 | 0.00 | 0.00 | 100 | 1010.4 |
| 20260509143155 | 38 | 140 | 3.2 | 14.5 | 0.00 | 0.00 | 0.00 | 100 | 1010.2 |
| 20260509143150 | 38 | 205 | 4.8 | 9.7 | 0.00 | 0.00 | 0.00 | 100 | 1010.4 |
| 20260509142146 | 38 | 184 | 8.0 | 14.5 | 0.00 | 0.00 | 0.00 | 100 | 1010.0 |
| 20260509141646 | 38 | 125 | 4.8 | 11.3 | 0.00 | 0.00 | 0.00 | 100 | 1009.9 |
| 20260509141143 | 38 | 165 | 6.4 | 11.3 | 0.00 | 0.00 | 0.00 | 100 | 1009.7 |
| 20260509140644 | 38 | 142 | 1.6 | 9.7 | 0.00 | 0.00 | 0.00 | 100 | 1009.5 |
| 20260509140143 | 38 | 135 | 0.0 | 9.7 | 0.00 | 0.00 | 0.00 | 3 | 1009.5 |
| 20260509135640 | 38 | 140 | 0.0 | 9.7 | 0.00 | 0.00 | 0.00 | 7 | 1009.4 |
| 20260509135408 | 38 | 143 | 3.2 | 9.7 | 0.00 | 0.00 | 0.00 | 26 | 1009.4 |
| 20260509134637 | 38 | 126 | 0.0 | 8.0 | 0.00 | 0.00 | 0.00 | 100 | 1009.5 |
| 20260509134132 | 38 | 153 | 0.0 | 8.0 | 0.00 | 0.00 | 0.00 | 100 | 1009.6 |
| 20260509133848 | 38 | 153 | 0.0 | 8.0 | 0.00 | 0.00 | 0.00 | 100 | 1009.7 |
| 20260509133600 | 38 | 167 | 0.0 | 3.2 | 0.00 | 0.00 | 0.00 | 100 | 1009.6 |
| 20260509132831 | 38 | 167 | 0.0 | 8.0 | 0.00 | 0.00 | 0.00 | 100 | 1009.7 |
| 20260509132058 | 37 | 167 | 3.2 | 8.0 | 0.00 | 0.00 | 0.00 | 100 | 1010.2 |
| 20260509131545 | 37 | 151 | 0.0 | 0.0 | 0.00 | 0.00 | 0.00 | 100 | 1010.0 |
| 20260509131041 | 37 | 151 | 0.0 | 0.0 | 0.00 | 0.00 | 0.00 | 100 | 1010.4 |
| 20260509130537 | 37 | 151 | 0.0 | 0.0 | 0.00 | 0.00 | 0.00 | 100 | 1010.7 |
| 20260509130031 | 37 | 151 | 0.0 | 0.0 | 0.00 | 0.00 | 0.00 | 100 | 1010.7 |
| 20260509125754 | 37 | 151 | 0.0 | 0.0 | 0.00 | 0.00 | 0.00 | 100 | 1010.7 |
| 20260509125017 | 37 | 151 | 0.0 | 0.0 | 0.00 | 0.00 | 0.00 | 100 | 1010.5 |
| 20260509124512 | 38 | 151 | 0.0 | 0.0 | 0.00 | 0.00 | 0.00 | 100 | 1010.4 |
| 20260509124000 | 37 | 151 | 0.0 | 0.0 | 0.00 | 0.00 | 0.00 | 100 | 1010.4 |
| 20260509123452 | 38 | 151 | 0.0 | 0.0 | 0.00 | 0.00 | 0.00 | 100 | 1010.3 |
| 20260509122945 | 38 | 151 | 0.0 | 0.0 | 0.00 | 0.00 | 0.00 | 100 | 1010.3 |
| 20260509122445 | 38 | 151 | 0.0 | 0.0 | 0.00 | 0.00 | 0.00 | 100 | 1009.9 |
| 20260509121930 | 38 | 151 | 0.0 | 0.0 | 0.00 | 0.00 | 0.00 | 100 | 1009.9 |
| 20260509121415 | 38 | 151 | 0.0 | 0.0 | 0.00 | 0.00 | 0.00 | 100 | 1010.0 |
| 20260509120907 | 37 | 151 | 0.0 | 0.0 | 0.00 | 0.00 | 0.00 | 100 | 1010.0 |
| 20260509120402 | 38 | 151 | 0.0 | 0.0 | 0.00 | 0.00 | 0.00 | 100 | 1010.0 |
| 20260509115859 | 37 | 151 | 0.0 | 0.0 | 0.00 | 0.00 | 0.00 | 100 | 1009.9 |
| 20260509115357 | 38 | 151 | 0.0 | 0.0 | 0.00 | 0.00 | 0.00 | 100 | 1010.2 |
| 20260509114849 | 37 | 151 | 0.0 | 0.0 | 0.00 | 0.00 | 0.00 | 100 | 1010.4 |
| 20260509114345 | 38 | 151 | 0.0 | 0.0 | 0.00 | 0.00 | 0.00 | 100 | 1010.5 |
| 20260509113839 | 38 | 151 | 0.0 | 0.0 | 0.00 | 0.00 | 0.00 | 100 | 1010.6 |
| 20260509113338 | 38 | 151 | 0.0 | 0.0 | 0.00 | 0.00 | 0.00 | 100 | 1010.8 |
| 20260509112839 | 38 | 151 | 0.0 | 0.0 | 0.00 | 0.00 | 0.00 | 100 | 1010.9 |
| 20260509112559 | 38 | 151 | 0.0 | 0.0 | 0.00 | 0.00 | 0.00 | 100 | 1011.1 |
| 20260509111828 | 38 | 151 | 0.0 | 0.0 | 0.00 | 0.00 | 0.00 | 100 | 1011.2 |
| 20260509111322 | 38 | 151 | 0.0 | 0.0 | 0.00 | 0.00 | 0.00 | 100 | 1011.2 |
| 20260509111036 | 38 | 151 | 0.0 | 0.0 | 0.00 | 0.00 | 0.00 | 100 | 1011.2 |
| 20260509110238 | 38 | 151 | 0.0 | 0.0 | 0.00 | 0.00 | 0.00 | 100 | 1011.3 |
| 20260509105736 | 38 | 151 | 0.0 | 0.0 | 0.00 | 0.00 | 0.00 | 100 | 1011.3 |
| 20260509105233 | 38 | 151 | 0.0 | 0.0 | 0.00 | 0.00 | 0.00 | 100 | 1011.3 |
| 20260509104728 | 38 | 151 | 0.0 | 0.0 | 0.00 | 0.00 | 0.00 | 100 | 1011.4 |
| 20260509104216 | 38 | 151 | 0.0 | 0.0 | 0.00 | 0.00 | 0.00 | 100 | 1011.4 |
| 20260509103652 | 37 | 151 | 0.0 | 0.0 | 0.00 | 0.00 | 0.00 | 100 | 1011.2 |
| 20260509103152 | 37 | 151 | 0.0 | 0.0 | 0.00 | 0.00 | 0.00 | 100 | 1011.4 |
| 20260509102648 | 37 | 151 | 0.0 | 0.0 | 0.00 | 0.00 | 0.00 | 100 | 1011.4 |
| 20260509102145 | 38 | 151 | 0.0 | 0.0 | 0.00 | 0.00 | 0.00 | 100 | 1011.3 |
| 20260509101908 | 37 | 151 | 0.0 | 0.0 | 0.00 | 0.00 | 0.00 | 100 | 1011.3 |
| 20260509101131 | 38 | 151 | 0.0 | 0.0 | 0.00 | 0.00 | 0.00 | 100 | 1011.1 |
| 20260509100626 | 37 | 151 | 0.0 | 0.0 | 0.00 | 0.00 | 0.00 | 100 | 1010.9 |
| 20260509100122 | 37 | 151 | 0.0 | 0.0 | 0.00 | 0.00 | 0.00 | 100 | 1010.7 |
| 20260509095614 | 38 | 151 | 0.0 | 0.0 | 0.00 | 0.00 | 0.00 | 100 | 1010.5 |
| 20260509095106 | 37 | 151 | 0.0 | 0.0 | 0.00 | 0.00 | 0.00 | 100 | 1010.2 |
| 20260509094603 | 37 | 151 | 0.0 | 0.0 | 0.00 | 0.00 | 0.00 | 100 | 1009.9 |
| 20260509094055 | 37 | 151 | 0.0 | 0.0 | 0.00 | 0.00 | 0.00 | 100 | 1009.7 |
| 20260509093558 | 37 | 151 | 0.0 | 0.0 | 0.00 | 0.00 | 0.00 | 100 | 1009.7 |
| 20260509093050 | 37 | 151 | 0.0 | 0.0 | 0.00 | 0.00 | 0.00 | 100 | 1009.7 |
| 20260509092537 | 37 | 151 | 0.0 | 0.0 | 0.00 | 0.00 | 0.00 | 100 | 1009.6 |
| 20260509092014 | 37 | 151 | 0.0 | 0.0 | 0.00 | 0.00 | 0.00 | 100 | 1009.6 |
| 20260509091507 | 37 | 151 | 0.0 | 0.0 | 0.00 | 0.00 | 0.00 | 100 | 1009.6 |
| 20260509091000 | 37 | 151 | 0.0 | 0.0 | 0.00 | 0.00 | 0.00 | 100 | 1009.6 |
| 20260509090500 | 37 | 151 | 0.0 | 0.0 | 0.00 | 0.00 | 0.00 | 100 | 1009.7 |
| 20260509085957 | 37 | 151 | 0.0 | 0.0 | 0.00 | 0.00 | 0.00 | 100 | 1009.7 |
| 20260509085443 | 37 | 151 | 0.0 | 0.0 | 0.00 | 0.00 | 0.00 | 100 | 1009.7 |
| 20260509084939 | 37 | 151 | 0.0 | 0.0 | 0.00 | 0.00 | 0.00 | 100 | 1009.7 |
| 20260509084434 | 37 | 151 | 0.0 | 0.0 | 0.00 | 0.00 | 0.00 | 100 | 1009.7 |
| 20260509083929 | 37 | 151 | 0.0 | 0.0 | 0.00 | 0.00 | 0.00 | 100 | 1009.7 |
| 20260509083411 | 37 | 151 | 0.0 | 0.0 | 0.00 | 0.00 | 0.00 | 100 | 1010.0 |
| 20260509082859 | 37 | 151 | 0.0 | 0.0 | 0.00 | 0.00 | 0.00 | 100 | 1010.2 |
| 20260509082353 | 37 | 151 | 0.0 | 0.0 | 0.00 | 0.00 | 0.00 | 100 | 1010.2 |
| 20260509081853 | 37 | 151 | 0.0 | 0.0 | 0.00 | 0.00 | 0.00 | 100 | 1010.4 |
| 20260509081622 | 37 | 151 | 0.0 | 0.0 | 0.00 | 0.00 | 0.00 | 100 | 1010.3 |
| 20260509080838 | 37 | 151 | 0.0 | 0.0 | 0.00 | 0.00 | 0.00 | 100 | 1010.3 |
| 20260509080604 | 37 | 151 | 0.0 | 0.0 | 0.00 | 0.00 | 0.00 | 100 | 1010.0 |
| 20260509075829 | 37 | 151 | 0.0 | 0.0 | 0.00 | 0.00 | 0.00 | 100 | 1010.2 |
| 20260509075314 | 37 | 151 | 0.0 | 0.0 | 0.00 | 0.00 | 0.00 | 100 | 1010.2 |
| 20260509074814 | 37 | 151 | 0.0 | 0.0 | 0.00 | 0.00 | 0.00 | 100 | 1010.2 |
| 20260509074303 | 37 | 151 | 0.0 | 0.0 | 0.00 | 0.00 | 0.00 | 82 | 1010.2 |
| 20260509073758 | 37 | 151 | 0.0 | 0.0 | 0.00 | 0.00 | 0.00 | 69 | 1010.2 |
| 20260509073254 | 37 | 151 | 0.0 | 0.0 | 0.00 | 0.00 | 0.00 | 58 | 1010.2 |
| 20260509072753 | 37 | 151 | 0.0 | 0.0 | 0.00 | 0.00 | 0.00 | 45 | 1010.4 |
| 20260509072250 | 37 | 151 | 0.0 | 0.0 | 0.00 | 0.00 | 0.00 | 34 | 1010.4 |
| 20260509072018 | 37 | 151 | 0.0 | 0.0 | 0.00 | 0.00 | 0.00 | 31 | 1010.5 |
| 20260509071240 | 37 | 151 | 0.0 | 0.0 | 0.00 | 0.00 | 0.00 | 29 | 1010.6 |
| 20260509070723 | 37 | 151 | 0.0 | 0.0 | 0.00 | 0.00 | 0.00 | 24 | 1010.6 |
| 20260509070214 | 38 | 151 | 0.0 | 0.0 | 0.00 | 0.00 | 0.00 | 21 | 1010.7 |
| 20260509065713 | 37 | 151 | 0.0 | 0.0 | 0.00 | 0.00 | 0.00 | 20 | 1010.5 |
| 20260509065213 | 37 | 151 | 0.0 | 0.0 | 0.00 | 0.00 | 0.00 | 16 | 1010.6 |
| 20260509064652 | 38 | 151 | 0.0 | 0.0 | 0.00 | 0.00 | 0.00 | 15 | 1010.3 |
| 20260509064141 | 37 | 151 | 0.0 | 0.0 | 0.00 | 0.00 | 0.00 | 14 | 1010.2 |
| 20260509063637 | 37 | 151 | 0.0 | 0.0 | 0.00 | 0.00 | 0.00 | 12 | 1010.2 |
| 20260509063129 | 38 | 151 | 0.0 | 0.0 | 0.00 | 0.00 | 0.00 | 10 | 1010.2 |
| 20260509062626 | 37 | 151 | 0.0 | 0.0 | 0.00 | 0.00 | 0.00 | 8 | 1010.3 |
| 20260509062121 | 38 | 151 | 0.0 | 11.3 | 0.00 | 0.00 | 0.00 | 7 | 1010.4 |
| 20260509061848 | 37 | 151 | 0.0 | 11.3 | 0.00 | 0.00 | 0.00 | 7 | 1010.3 |
| 20260509061612 | 37 | 149 | 0.0 | 9.7 | 0.00 | 0.00 | 0.00 | 6 | 1010.0 |
| 20260509060555 | 37 | 149 | 0.0 | 11.3 | 0.00 | 0.00 | 0.00 | 5 | 1009.7 |
| 20260509060056 | 37 | 153 | 6.4 | 11.3 | 0.00 | 0.00 | 0.00 | 5 | 1009.6 |
| 20260509055827 | 37 | 125 | 0.0 | 3.2 | 0.00 | 0.00 | 0.00 | 4 | 1009.5 |
| 20260509055051 | 37 | 125 | 0.0 | 12.9 | 0.00 | 0.00 | 0.00 | 4 | 1009.7 |
| 20260509054545 | 38 | 125 | 3.2 | 14.5 | 0.00 | 0.00 | 0.00 | 3 | 1009.9 |
| 20260509054045 | 38 | 144 | 0.0 | 14.5 | 0.00 | 0.00 | 0.00 | 3 | 1009.9 |
| 20260509053533 | 38 | 161 | 0.0 | 8.0 | 0.00 | 0.00 | 0.00 | 3 | 1009.7 |
| 20260509053300 | 38 | 160 | 3.2 | 9.7 | 0.00 | 0.00 | 0.00 | 3 | 1009.5 |
| 20260509052525 | 38 | 140 | 3.2 | 9.7 | 0.00 | 0.00 | 0.00 | 4 | 1009.2 |
| 20260509052016 | 38 | 109 | 0.0 | 6.4 | 0.00 | 0.00 | 0.00 | 4 | 1009.1 |
| 20260509051506 | 38 | 146 | 0.0 | 9.7 | 0.00 | 0.00 | 0.00 | 4 | 1008.9 |
| 20260509050957 | 38 | 123 | 6.4 | 9.7 | 0.00 | 0.00 | 0.00 | 3 | 1008.9 |
| 20260509050456 | 38 | 116 | 0.0 | 9.7 | 0.00 | 0.00 | 0.00 | 2 | 1009.0 |
| 20260509045949 | 38 | 137 | 0.0 | 9.7 | 0.00 | 0.00 | 0.00 | 1 | 1009.1 |
| 20260509045715 | 38 | 143 | 0.0 | 0.0 | 0.00 | 0.00 | 0.00 | 1 | 1009.0 |
| 20260509045214 | 37 | 143 | 0.0 | 0.0 | 0.00 | 0.00 | 0.00 | 100 | 1009.0 |
| 20260509044443 | 38 | 143 | 0.0 | 0.0 | 0.00 | 0.00 | 0.00 | 100 | 1009.1 |
| 20260509043938 | 38 | 143 | 0.0 | 8.0 | 0.00 | 0.00 | 0.00 | 100 | 1009.2 |
| 20260509043420 | 38 | 143 | 0.0 | 8.0 | 0.00 | 0.00 | 0.00 | 100 | 1009.2 |
| 20260509042917 | 38 | 133 | 1.6 | 8.0 | 0.00 | 0.00 | 0.00 | 100 | 1009.2 |
| 20260509042418 | 38 | 109 | 0.0 | 0.0 | 0.00 | 0.00 | 0.00 | 100 | 1009.3 |
| 20260509041918 | 38 | 109 | 0.0 | 0.0 | 0.00 | 0.00 | 0.00 | 100 | 1009.5 |
| 20260509041412 | 38 | 109 | 0.0 | 0.0 | 0.00 | 0.00 | 0.00 | 100 | 1009.5 |
| 20260509040913 | 38 | 109 | 0.0 | 0.0 | 0.00 | 0.00 | 0.00 | 100 | 1009.4 |
| 20260509040359 | 38 | 109 | 0.0 | 0.0 | 0.00 | 0.00 | 0.00 | 100 | 1009.6 |
| 20260509035902 | 38 | 109 | 0.0 | 0.0 | 0.00 | 0.00 | 0.00 | 100 | 1009.5 |
| 20260509035351 | 37 | 109 | 0.0 | 0.0 | 0.00 | 0.00 | 0.00 | 100 | 1009.4 |
| 20260509034848 | 38 | 109 | 0.0 | 0.0 | 0.00 | 0.00 | 0.00 | 100 | 1009.3 |
| 20260509034843 | 38 | 109 | 0.0 | 0.0 | 0.00 | 0.00 | 0.00 | 100 | 1009.3 |
| 20260509033837 | 37 | 109 | 0.0 | 0.0 | 0.00 | 0.00 | 0.00 | 100 | 1009.2 |
| 20260509033334 | 38 | 109 | 0.0 | 0.0 | 0.00 | 0.00 | 0.00 | 100 | 1009.2 |
| 20260509032817 | 38 | 109 | 0.0 | 0.0 | 0.00 | 0.00 | 0.00 | 100 | 1009.3 |
| 20260509032530 | 38 | 109 | 0.0 | 0.0 | 0.00 | 0.00 | 0.00 | 100 | 1009.4 |
| 20260509031749 | 38 | 109 | 0.0 | 0.0 | 0.00 | 0.00 | 0.00 | 100 | 1009.4 |
| 20260509031241 | 37 | 109 | 0.0 | 0.0 | 0.00 | 0.00 | 0.00 | 100 | 1009.3 |
| 20260509030739 | 38 | 109 | 0.0 | 0.0 | 0.00 | 0.00 | 0.00 | 100 | 1009.3 |
| 20260509030201 | 38 | 109 | 0.0 | 0.0 | 0.00 | 0.00 | 0.00 | 100 | 1009.3 |
| 20260509025655 | 38 | 109 | 0.0 | 0.0 | 0.00 | 0.00 | 0.00 | 100 | 1009.3 |
| 20260509025145 | 38 | 109 | 0.0 | 0.0 | 0.00 | 0.00 | 0.00 | 100 | 1009.2 |